N0JY-4 Weather Reports


Display with metric or nautical units.
time (UTC)temp
F
wind
direction
speed
MPH
gust
MPH
rain 1hr
in
rain 24hr
in
rain mn
in
humidity
%
barometer
mb
20181218170032 53 114 5.0 7.0 0.00 0.00 0.00 1019.7
20181218165305 52 145 7.0 8.0 0.00 0.00 0.00 1020.0
20181218164537 50 108 9.0 6.0 0.00 0.00 0.00 1020.2
20181218163809 50 129 7.0 8.0 0.00 0.00 0.00 1020.3
20181218163038 50 145 6.0 7.0 0.00 0.00 0.00 1020.3
20181218162312 50 148 6.0 5.0 0.00 0.00 0.00 1020.2
20181218161541 50 105 6.0 7.0 0.00 0.00 0.00 1020.3
20181218160815 49 114 7.0 8.0 0.00 0.00 0.00 1020.2
20181218160336 49 120 6.0 6.0 0.00 0.00 0.00 1020.4
20181218160045 49 120 6.0 6.0 0.00 0.00 0.00 1020.4
20181218155318 48 115 6.0 7.0 0.00 0.00 0.00 1020.5
20181218154552 48 128 6.0 6.0 0.00 0.00 0.00 1020.7
20181218153824 46 150 5.0 6.0 0.00 0.00 0.00 1020.6
20181218153049 46 118 4.0 5.0 0.00 0.00 0.00 1020.6
20181218152322 45 125 4.0 4.0 0.00 0.00 0.00 1020.6
20181218151555 44 152 3.0 3.0 0.00 0.00 0.00 1020.6
20181218150824 42 115 4.0 4.0 0.00 0.00 0.00 1020.6
20181218150051 41 76 3.0 3.0 0.00 0.00 0.00 1020.5
20181218145325 40 105 3.0 4.0 0.00 0.00 0.00 1020.3
20181218144554 39 87 2.0 2.0 0.00 0.00 0.00 1020.3
20181218143828 38 108 2.0 1.0 0.00 0.00 0.00 1020.3
20181218143056 38 132 2.0 1.0 0.00 0.00 0.00 1020.2
20181218142326 38 84 0.0 0.0 0.00 0.00 0.00 1020.1
20181218141555 38 103 0.0 0.0 0.00 0.00 0.00 1020.1
20181218140824 37 166 1.0 2.0 0.00 0.00 0.00 1020.0
20181218140050 37 177 0.0 1.0 0.00 0.00 0.00 1020.0
20181218135323 37 75 0.0 0.0 0.00 0.00 0.00 1019.6
20181218134557 37 75 0.0 0.0 0.00 0.00 0.00 1019.5
20181218133048 37 75 0.0 0.0 0.00 0.00 0.00 1019.5
20181218132320 36 75 0.0 0.0 0.00 0.00 0.00 1019.3
20181218130824 34 32 0.0 0.0 0.00 0.00 0.00 1019.4
20181218130047 35 32 1.0 0.0 0.00 0.00 0.00 1019.4
20181218125320 36 7 0.0 0.0 0.00 0.00 0.00 1019.4
20181218123824 36 7 0.0 0.0 0.00 0.00 0.00 1019.5
20181218123047 36 7 0.0 0.0 0.00 0.00 0.00 1019.5
20181218122320 36 7 0.0 0.0 0.00 0.00 0.00 1019.3
20181218121553 36 7 0.0 0.0 0.00 0.00 0.00 1019.2
20181218120859 36 7 0.0 0.0 0.00 0.00 0.00 1019.3
20181218120826 36 7 0.0 0.0 0.00 0.00 0.00 1019.3
20181218120053 36 7 0.0 0.0 0.00 0.00 0.00 1019.2
20181218115527 36 7 0.0 0.0 0.00 0.00 0.00 1019.2
20181218115324 36 7 0.0 0.0 0.00 0.00 0.00 1019.2
20181218114557 36 7 0.0 0.0 0.00 0.00 0.00 1019.0
20181218113825 35 7 0.0 0.0 0.00 0.00 0.00 1019.0
20181218113055 35 7 0.0 0.0 0.00 0.00 0.00 1019.0
20181218112330 35 7 0.0 0.0 0.00 0.00 0.00 1019.1
20181218111602 35 7 0.0 0.0 0.00 0.00 0.00 1018.9
20181218110831 35 7 0.0 0.0 0.00 0.00 0.00 1018.9
20181218110053 35 7 0.0 0.0 0.00 0.00 0.00 1018.9
20181218104550 37 7 0.0 0.0 0.00 0.00 0.00 1019.0
20181218103824 37 7 0.0 0.0 0.00 0.00 0.00 1019.2
20181218103049 37 7 0.0 0.0 0.00 0.00 0.00 1019.2
20181218102318 37 7 0.0 0.0 0.00 0.00 0.00 1019.3
20181218101550 37 7 0.0 0.0 0.00 0.00 0.00 1019.3
20181218100823 37 7 0.0 0.0 0.00 0.00 0.00 1019.4
20181218100047 37 7 0.0 0.0 0.00 0.00 0.00 1019.5
20181218095320 37 7 0.0 0.0 0.00 0.00 0.00 1019.5
20181218094550 37 7 0.0 0.0 0.00 0.00 0.00 1019.6
20181218093823 37 7 0.0 0.0 0.00 0.00 0.00 1019.6
20181218093046 38 7 0.0 0.0 0.00 0.00 0.00 1019.6
20181218092315 38 7 0.0 0.0 0.00 0.00 0.00 1019.9
20181218091554 37 7 0.0 0.0 0.00 0.00 0.00 1019.9
20181218090823 37 7 0.0 0.0 0.00 0.00 0.00 1019.9
20181218090045 37 7 0.0 0.0 0.00 0.00 0.00 1019.9
20181218085318 37 7 0.0 0.0 0.00 0.00 0.00 1020.0
20181218083820 37 7 0.0 0.0 0.00 0.00 0.00 1020.0
20181218083050 37 7 0.0 0.0 0.00 0.00 0.00 1020.1
20181218082323 38 7 0.0 0.0 0.00 0.00 0.00 1020.2
20181218081555 38 7 0.0 0.0 0.00 0.00 0.00 1020.1
20181218080821 38 7 0.0 0.0 0.00 0.00 0.00 1020.2
20181218080030 38 7 0.0 0.0 0.00 0.00 0.00 1020.1
20181218075259 38 7 0.0 0.0 0.00 0.00 0.00 1020.1
20181218073806 38 37 0.0 0.0 0.00 0.00 0.00 1020.0
20181218073030 38 37 0.0 0.0 0.00 0.00 0.00 1020.1
20181218072300 39 37 0.0 0.0 0.00 0.00 0.00 1020.2
20181218071528 39 37 0.0 0.0 0.00 0.00 0.00 1020.3
20181218070801 40 37 0.0 0.0 0.00 0.00 0.00 1020.4
20181218064532 42 37 0.0 0.0 0.00 0.00 0.00 1020.7
20181218063805 43 37 0.0 0.0 0.00 0.00 0.00 1020.6
20181218063030 42 37 0.0 0.0 0.00 0.00 0.00 1020.7
20181218062303 42 37 0.0 0.0 0.00 0.00 0.00 1020.9
20181218060809 42 37 0.0 0.0 0.00 0.00 0.00 1021.0
20181218060038 42 37 0.0 0.0 0.00 0.00 0.00 1021.1
20181218055307 42 37 0.0 0.0 0.00 0.00 0.00 1021.2
20181218054535 42 37 0.0 0.0 0.00 0.00 0.00 1021.3
20181218053807 43 37 0.0 0.0 0.00 0.00 0.00 1021.2
20181218053027 43 37 0.0 0.0 0.00 0.00 0.00 1021.3
20181218052258 43 37 0.0 0.0 0.00 0.00 0.00 1021.3
20181218051532 43 37 0.0 0.0 0.00 0.00 0.00 1021.4
20181218050804 44 37 0.0 0.0 0.00 0.00 0.00 1021.5
20181218050029 44 37 0.0 0.0 0.00 0.00 0.00 1021.6
20181218045303 44 37 0.0 0.0 0.00 0.00 0.00 1021.7
20181218044536 44 79 0.0 3.0 0.00 0.00 0.00 1021.7
20181218043804 45 305 0.0 0.0 0.00 0.00 0.00 1021.9
20181218043026 46 305 0.0 0.0 0.00 0.00 0.00 1022.0
20181218042258 46 305 0.0 0.0 0.00 0.00 0.00 1021.8
20181218041525 46 305 0.0 0.0 0.00 0.00 0.00 1022.0
20181218040757 46 319 3.0 2.0 0.00 0.00 0.00 1021.9
20181218040023 46 304 0.0 3.0 0.00 0.00 0.00 1021.8
20181218035255 46 321 0.0 0.0 0.00 0.00 0.00 1021.8
20181218034529 46 321 0.0 1.0 0.00 0.00 0.00 1021.8
20181218033802 46 35 2.0 1.0 0.00 0.00 0.00 1021.7
20181218033030 46 7 0.0 0.0 0.00 0.00 0.00 1021.8
20181218031536 47 204 0.0 0.0 0.00 0.00 0.00 1022.1
20181218030806 47 204 0.0 0.0 0.00 0.00 0.00 1022.1
20181218025300 47 204 0.0 0.0 0.00 0.00 0.00 1022.1
20181218024534 47 204 0.0 0.0 0.00 0.00 0.00 1022.3
20181218023036 46 252 2.0 2.0 0.00 0.00 0.00 1022.4
20181218022311 46 11 0.0 0.0 0.00 0.00 0.00 1022.0
20181218021542 46 11 0.0 0.0 0.00 0.00 0.00 1022.0
20181218020816 46 11 0.0 0.0 0.00 0.00 0.00 1021.8
20181218020045 46 15 1.0 1.0 0.00 0.00 0.00 1021.9
20181218015317 46 8 4.0 5.0 0.00 0.00 0.00 1021.8
20181218014549 46 3 2.0 3.0 0.00 0.00 0.00 1021.9
20181218013820 46 8 3.0 3.0 0.00 0.00 0.00 1021.9
20181218013048 47 6 4.0 5.0 0.00 0.00 0.00 1022.0
20181218012320 47 8 4.0 3.0 0.00 0.00 0.00 1022.1
20181218011552 47 1 3.0 3.0 0.00 0.00 0.00 1022.2
20181218010053 47 352 3.0 3.0 0.00 0.00 0.00 1022.3
20181218005326 47 356 0.0 0.0 0.00 0.00 0.00 1022.4
20181218004600 47 356 0.0 0.0 0.00 0.00 0.00 1022.4
20181218003833 48 8 2.0 2.0 0.00 0.00 0.00 1022.5
20181218003058 48 228 0.0 0.0 0.00 0.00 0.00 1022.6
20181218002325 49 228 0.0 0.0 0.00 0.00 0.00 1022.6
20181218001559 50 228 0.0 0.0 0.00 0.00 0.00 1022.5
20181218000832 51 228 0.0 0.0 0.00 0.00 0.00 1022.5
20181218000100 51 228 0.0 0.0 0.00 0.00 0.00 1022.6
20181217235332 52 228 0.0 0.0 0.00 0.00 0.00 1022.7
20181217234606 52 246 0.0 1.0 0.00 0.00 0.00 1022.7
20181217233838 53 256 3.0 2.0 0.00 0.00 0.00 1022.6
20181217233105 53 184 1.0 0.0 0.00 0.00 0.00 1022.4
20181217232337 53 225 4.0 4.0 0.00 0.00 0.00 1022.4
20181217231611 54 276 0.0 0.0 0.00 0.00 0.00 1022.3
20181217230105 55 276 1.0 2.0 0.00 0.00 0.00 1021.9
20181217225335 55 10 1.0 0.0 0.00 0.00 0.00 1021.9
20181217224608 55 8 5.0 5.0 0.00 0.00 0.00 1021.5
20181217223843 55 345 5.0 4.0 0.00 0.00 0.00 1021.9
20181217223113 55 321 5.0 5.0 0.00 0.00 0.00 1021.8
20181217222345 55 314 3.0 6.0 0.00 0.00 0.00 1022.0
20181217221619 55 314 4.0 3.0 0.00 0.00 0.00 1022.1
20181217220853 55 332 5.0 5.0 0.00 0.00 0.00 1022.0
20181217220120 56 332 5.0 5.0 0.00 0.00 0.00 1022.2
20181217214627 57 325 6.0 5.0 0.00 0.00 0.00 1022.3
20181217213900 57 335 4.0 5.0 0.00 0.00 0.00 1022.3
20181217213127 58 301 2.0 3.0 0.00 0.00 0.00 1022.4
20181217212359 57 322 2.0 3.0 0.00 0.00 0.00 1022.5
20181217211632 56 323 3.0 3.0 0.00 0.00 0.00 1022.3
20181217210905 57 316 6.0 7.0 0.00 0.00 0.00 1022.4
20181217210136 57 297 4.0 3.0 0.00 0.00 0.00 1022.4
20181217205404 57 325 4.0 3.0 0.00 0.00 0.00 1022.7
20181217204635 57 255 4.0 4.0 0.00 0.00 0.00 1022.7
20181217203905 57 203 4.0 4.0 0.00 0.00 0.00 1023.0
20181217203133 55 224 4.0 5.0 0.00 0.00 0.00 1022.9
20181217202404 55 284 5.0 4.0 0.00 0.00 0.00 1022.9
20181217201638 55 248 2.0 2.0 0.00 0.00 0.00 1023.0
20181217200911 55 298 1.0 4.0 0.00 0.00 0.00 1023.1
20181217195414 53 243 2.0 5.0 0.00 0.00 0.00 1023.4
20181217194646 53 309 3.0 2.0 0.00 0.00 0.00 1023.5
20181217193915 53 236 4.0 2.0 0.00 0.00 0.00 1023.7
20181217193141 52 205 4.0 3.0 0.00 0.00 0.00 1023.8
20181217192415 52 210 5.0 5.0 0.00 0.00 0.00 1023.8
20181217191647 51 229 5.0 3.0 0.00 0.00 0.00 1023.6
20181217190918 51 297 2.0 1.0 0.00 0.00 0.00 1023.3
20181217190142 51 271 2.0 0.0 0.00 0.00 0.00 1023.5
20181217185416 51 221 2.0 3.0 0.00 0.00 0.00 1023.5
20181217184648 51 243 2.0 4.0 0.00 0.00 0.00 1023.7
20181217183922 51 312 4.0 4.0 0.00 0.00 0.00 1023.6
20181217183144 50 210 3.0 2.0 0.00 0.00 0.00 1023.9
20181217182408 50 225 3.0 1.0 0.00 0.00 0.00 1024.2
20181217181638 50 198 4.0 4.0 0.00 0.00 0.00 1024.3
20181217180912 50 221 6.0 5.0 0.00 0.00 0.00 1024.5
20181217180138 50 218 3.0 2.0 0.00 0.00 0.00 1024.2
20181217175413 50 277 1.0 0.0 0.00 0.00 0.00 1024.2
20181217174645 49 326 4.0 5.0 0.00 0.00 0.00 1024.2
20181217173918 50 267 2.0 2.0 0.00 0.00 0.00 1024.4
20181217173142 49 339 6.0 3.0 0.00 0.00 0.00 1024.2
20181217172413 49 321 6.0 6.0 0.00 0.00 0.00 1024.6
20181217171643 49 318 2.0 3.0 0.00 0.00 0.00 1024.8
20181217170916 49 311 3.0 2.0 0.00 0.00 0.00 1025.0